Regional Weather Roundup
Issued by NWS

Home | Current Version | Previous Version | Graphics & Text | Print | Product List | Glossary Off
Versions: 1 2 3 4 5 6 7 8 9 10 11 12 13 14 15 16 17 18 19 20 21 22 23 24 25 26 27 28 29 30 31 32 33 34 35 36 37 38 39 40 41 42 43 44 45 46 47 48 49 50

000
ASUS45 KABQ 312010
RWRNM
WEATHER ROUNDUP FOR NEW MEXICO
NATIONAL WEATHER SERVICE ALBUQUERQUE NM
100 PM MST SAT JAN 31 2015

NOTE: "FAIR" MEANS FEW OR NO CLOUDS BELOW 12,000 FEET AGL WITH NO
       SIGNIFICANT WEATHER OR OBSTRUCTIONS TO VISION.

      THIS PRODUCT IS RELEASED AS TWO VERSIONS.  ONE VERSION NEAR
      THE TOP OF THE HOUR CONTAINING PRELIMINARY DATA FROM ALBUQUERQUE
      AND OTHER STATIONS.  A FINAL VERSION WITH ADDITIONAL DATA IS
      ISSUED ABOUT 10 MINUTES AFTER THE HOUR.

NMZ501-503-504-510>518-312100-
NORTHWEST PLATEAU/NORTHCENTRAL MOUNTAINS

CITY           SKY/WX    TMP DP  RH WIND       PRES   REMARKS
FARMINGTON     CLOUDY    36  35  96 W8        29.89F WCI  30
LOS ALAMOS     CLOUDY    31  31 100 S3        29.88F FOG
SANTA FE       CLOUDY    33  30  88 S3        29.87F FOG
TAOS           CLOUDY    30  28  93 S5        29.87F WCI  25
ANGEL FIRE     CLOUDY    34  30  85 W6        29.82F FOG     WCI  29

$$
NMZ402-403-502-505>509-312100-
WESTCENTRAL MOUNTAINS/SOUTHWEST MOUNTAINS

CITY           SKY/WX    TMP DP  RH WIND       PRES   REMARKS
GALLUP         CLOUDY    37  34  89 W5        29.91F WCI  33
GRANTS         CLOUDY    37  32  84 CALM      29.91F
SILVER CITY    CLOUDY    46  41  81 S7        29.91F

$$
NMZ407-409-411-412-312100-
SOUTHERN DESERTS

CITY           SKY/WX    TMP DP  RH WIND       PRES   REMARKS
LORDSBURG      DRIZZLE   46  45  93 SE3       29.87F
DEMING         CLOUDY    50  44  80 CALM      29.88F
LAS CRUCES     CLOUDY    49  45  85 SW7       29.90F
HOLLOMAN AFB   CLOUDY    46  46 100 CALM      29.87F
ALAMOGORDO     CLOUDY    46  45  93 CALM      29.89F
T OR C         CLOUDY    47  43  86 S8        29.86F

$$
NMZ519>523-312100-
CENTRAL VALLEYS/CENTRAL HIGHLANDS

CITY           SKY/WX    TMP DP  RH WIND       PRES   REMARKS
ALBUQUERQUE    CLOUDY    38  35  89 CALM      29.91F FOG
DOUBLE EAGLE   DRIZZLE   34  32  93 CALM      29.90F
MORIARTY ARPT  CLOUDY    35  32  88 CALM      29.89F
CLINES CORNERS CLOUDY    34  31  88 W15       29.83F FOG     WCI  24
BELEN          CLOUDY    40  37  88 CALM      29.90F
SOCORRO        CLOUDY    41  39  93 N6        29.89F

$$
NMZ524>526-539-540-312100-
SOUTHCENTRAL MOUNTAINS

CITY           SKY/WX    TMP DP  RH WIND       PRES   REMARKS
RUIDOSO        MOSUNNY   46  36  66 SW21      29.88F

$$
NMZ527>531-312100-
NORTHEAST HIGHLANDS/NORTHEAST PLAINS

CITY           SKY/WX    TMP DP  RH WIND       PRES   REMARKS
LAS VEGAS      PTSUNNY   34  31  88 S21       29.81F WCI  22
RATON          CLOUDY    31  28  89 SW6       29.81F WCI  25
CLAYTON        CLOUDY    39  34  82 SW15      29.81F WCI  31

$$
NMZ532>537-312100-
EASTCENTRAL PLAINS

CITY           SKY/WX    TMP DP  RH WIND       PRES   REMARKS
TUCUMCARI      CLOUDY    41  36  82 SW8       29.85F
CANNON AFB     CLOUDY    37 N/A N/A CALM      29.87F HAZE
CLOVIS AIRPORT CLOUDY    37  36  93 S9        29.88F WCI  31

$$
NMZ028-029-538-312100-
SOUTHEAST PLAINS

CITY           SKY/WX    TMP DP  RH WIND       PRES   REMARKS
ROSWELL        CLOUDY    43  39  86 CALM      29.88F
ARTESIA        CLOUDY    45  45 100 CALM      29.90F
CARLSBAD       CLOUDY    45  41  86 CALM      29.89F
HOBBS          FOG       45  45 100 S6        29.90F VSB 1/4


$$



USA.gov is the U.S. government's official web portal to all federal, state and local government web resources and services.